Hourly Data Report for September 21, 2017

All times are specified in Local Standard Time (LST). Add 1 hour to adjust for Daylight Saving Time where and when it is observed.

GRISE FIORD CLIMATE
NUNAVUT

76°25'22.040" N
82°54'08.020" W
44.50 m
2402351
71971
NGC

Download Data

Hourly Data (September 2017)
Hourly Data Report for September 21, 2017
Temp Definition
°C
Dew Point Temp Definition
°C
Rel Hum Definition
%
Wind Dir Definition
10's deg

Wind Spd Definition
km/h
Visibility Definition
km
Stn Press Definition
kPa
Hmdx Definition


Wind Chill Definition


Weather Definition


TIME
00:00 -2.1 -9.1 59 34 8   102.31   -5 LegendNANA
01:00 -4.4 -9.6 67 5 5   102.29   -7 LegendNANA
02:00 -4.5 -9.8 67 9 2   102.27   -5 LegendNANA
03:00 -4.6 -10.1 65 7 4   102.24   -6 LegendNANA
04:00 -4.3 -8.4 73 12 5   102.22   -6 LegendNANA
05:00 -5.3 -9.4 73 4 5   102.21   -8 LegendNANA
06:00 -4.5 -8.3 74 12 8   102.18   -8 LegendNANA
07:00 -6.4 -9.9 76 5 7   102.15   -10 LegendNANA
08:00 -6.2 -9.5 77 4 5   102.10   -9 LegendNANA
09:00 -7.2 -10.4 78 4 4   102.04   -9 LegendNANA
10:00 -4.2 -9.7 66 12 7   102.00   -7 LegendNANA
11:00 -3.5 -9.3 64 14 12   101.97   -8 LegendNANA
12:00
13:00
14:00 -2.1 -9.3 57 14 6   101.82   -4 LegendNANA
15:00 -2.4 -5.1 81 22 4   101.81   -4 LegendNANA
16:00 -2.5 -5.4 81 4 3   101.79   -4 LegendNANA
17:00 -2.4 -5.9 77 22 2   101.75   -3 LegendNANA
18:00 -2.6 -5.5 80 4 6   101.69   -5 LegendNANA
19:00 -2.5 -5.4 80 15 3   101.65   -4 LegendNANA
20:00 -2.8 -5.1 85 10 3   101.58   -4 LegendNANA
21:00 -3.5 -5.7 85 7 2   101.53   -4 LegendNANA
22:00 -2.6 -4.6 87 0 1   101.49   -3 LegendNANA
23:00 -2.5 -4.9 84 11 1   101.43   -3 LegendNANA

Notes on Data Quality.

Legend

  • E = Estimated
  • M = Missing
  • NA = Not Available
  • ‡ = Partner data that is not subject to review by the National Climate Archives
Date modified: